Location: Colonie
(42.7179°N, 73.8335°W)
Time: 09:27:43
(UTC+00:00)

Cosmos 44 Rocket - Pass Details

Date: 29 October 2020
Orbit: 642 x 748 km, 65.1° (Epoch: 23 November)

Event Time Altitude Azimuth Distance (km) Brightness Sun altitude
Rises 23:06:38 0° 196° (SSW) 2,969 6.8 -14.4°
Reaches altitude 10° 23:08:57 10° 190° (S) 2,075 5.9 -14.8°
Maximum altitude 23:13:28 48° 117° (ESE) 890 3.5 -15.6°
Enters shadow 23:16:14 22° 54° (NE) 1,468 4.5 -16.1°
